IONOSFERA-M 3

Last updated on Sat Oct 25 2025 00:02:33 GMT+0000 (Coordinated Universal Time)

1 64876U 25155A 25297.72054958 .00000128 00000+0 78209-4 0 9994 2 64876 98.5706 260.9921 0001626 136.8441 223.2864 14.21422781 12955
UTC large
Height (km)
Speed (km/s)
/
Latitude / Longitude
Inclination (degrees)
Orbital Period (minutes)
Azimuth
Elevation
Range (km)
Doppler Factor

Next 0 passes for location: London (51.5072 / 0.1276)

Sorry there are no passes over London.